Погода Новотроицкое

Погода Новотроицкое : погода сейчас, прогноз погоды и архив. Всё, что Вы хотите узнать о погоде Новотроицкое!

Хотите узнать прогноз погоды Новотроицкое? Тогда Вам сюда: Погода Новотроицкое

Поиск расширенной информации на нашем сайте:

Другие новости

Новости СМИ2

Главная страница сайта

Новости сайта

02.10.2013

Напоминаем, что на нашем новом сайте вы можете получить высокодетализированные прогнозы погоды по пунктам России, СНГ и мира (включающие важные для авиации метеовеличины, такие как направление и скорость ветра, видимость, явления погоды, количество и форма облачности, нижняя и верхняя граница облачности), а также ознакомиться с разнообразными материалами по авиационной метеорологии и подборкой полезных ссылок на эту тему.

Сайт Метеоцентр.Азия посвящён разработке технологий оптимизации авиаметеорологического обслуживания, включая проектирование и перспективное создание нескольких автоматизированных авиаметеорологических систем:
- система выпуска высокодетальных прогностических карт явлений погоды для нижнего воздушного пространства по России и ближнему зарубежью;
- система верификации прогнозов TAF (выпускаемых синоптиками официальных АМСГ РФ и ближнего зарубежья) и AUTOTAF (выпускаемых сайтом Метеоцентр.Азия) - выявление ошибок, онлайн-сопоставление с фактической погодой METAR, автоматическое внесение коррективов в прогнозы при резком отклонении фактической погоды от прогноза, подсчёт оправдываемости прогнозов по элементам и в целом;
- система обработки, анализа и отображения авиаметеорологической информации для применения провайдерами метеорологической информации.

Рекомендуем: Полог брезентовый 3х5м утепленный www.korona-len.ru.

Погода Новотроицкое - сегодня

Время (UTC), дата Ветер
(°,м/с) 
Видим.   Явления Облачность Т
(°С)
Тd
(°С)
f(%) Тe
(°С)
Pmin
(гПа)
dP
(гПа)
Po
(мм)
O2
(г/м3)
Тmin Tmax R s Состояние
почвы
15 25.02.17 140 (ЮВ) 2000 м  дождь  10/10 300 м 
[Ns]
+1.5 +1 96 1029.7  1.8  730  292    +5.7     
18 25.02.17 230 (ЮЗ) 10 км    10/10 600 м 
[Sc]
+1.3 -0.1 90 +1  1032.2  2.4  732  293    +5.7     
21 25.02.17 270 (З) 10 км    10/10 600 м 
[Sc]
+0.3 -0.8 92 1033.5  733  295           
00 26.02.17 тихо ()   2000 м  дымка  3/3 1000 м 
[Sc]
-2.9 -3.6 95 -3  1034.8  0.5  733  299           
03 26.02.17 360 (С) 20000 м    8/8 600 м 
[Sc]
-1.5 -2.4 94 -1  1034.2  -0.2  733  297      0.3  17  мокрый или
старый снег
50-90% 
06 26.02.17 360 (С) 20000 м    10/10 600 м 
[Sc]
+1.9 +0.6 91 +3  1033.7  0.1  733  293  -3    0.3     
09 26.02.17 050 (СВ) 20000 м    ясно 
+3.2 -1.2 73 +3  1030.1  -3.1  731  291           
12 26.02.17 050 (СВ) 20000 м    6/0 средняя 
[Ac cuf]
+2.7 -1.2 75 +2  1029.4  -0.8  730  291           
15 26.02.17 360 (С) 10 км    6/0 средняя 
[Ac cuf]
-0.5 -3.2 82 -2  1028.7  -1.2  729  295    +3.8       
18 26.02.17 050 (СВ) 10 км    4/0 средняя 
[Ac cuf]
-3.1 -5.5 83 -3  1028.1  -1.1  728  297    +3.8       
21 26.02.17 090 (В) 10 км    ясно 
-6 -7.5 89 -6  1027.3  -1.4  727  300           
00 27.02.17 050 (СВ) 10 км    ясно 
-7.5 -10.1 82 -7  1025.7  -1.8  726  302           
03 27.02.17 тихо ()   20000 м    3/0 средняя 
[Ac lent]
-8.6 -11 83 -9  1026.6  0.5  726  303        13  мокрый или
старый снег
50-90% 
06 27.02.17 тихо ()   20000 м    8/0 верхняя 
[Cc]
+1.5 -3.6 69 +2  1024.7  0.4  726  291  -8.7         
09 27.02.17 320 (СЗ) 20000 м    4/0 верхняя 
[Cc]
+3.4 -2.6 65 +4  1024.4  0.1  727  289           
12 27.02.17 тихо ()   20000 м    ясно 
+4.5 -1.2 66 +5  1024.6  0.4  727  288           
15 27.02.17 160 (Ю) 10 км    ясно 
-2.5 -6.9 72 -2  1026.6  0.5  727  296    +5.2       
18 27.02.17 тихо ()   10 км    3/0 средняя 
[Ac cuf]
-2.3 -6.3 74 -2  1027.6  0.9  728  296    +5.2       
21 27.02.17 180 (Ю) 10 км    ясно 
-3.9 -6.8 80 -3  1027  -0.9  727  298           
00 28.02.17 тихо ()   10 км    ясно 
-5.3 -7.8 83 -5  1027.3  727  300           
03 28.02.17 050 (СВ) 2000 м  дымка  ясно 
-5.5 -6.9 90 -5  1027.5  0.2  727  300        мокрый или
старый снег
50-90% 
06 28.02.17 230 (ЮЗ) 20000 м    ясно 
+6 -0.6 63 +7  1025.2  0.1  727  287  -5.6         
09 28.02.17 320 (СЗ) 20000 м    ясно 
+7.5 -0.2 58 +8  1024.1  -0.7  727  285           
12 28.02.17 050 (СВ) 20000 м    ясно 
+8 -0.2 56 +9  1023.8  -0.2  727  284           
15 28.02.17 090 (В) 10 км    3/0 средняя 
[Ac lent]
+3.7 -2.6 63 +5  1025.1  0.4  727  289    +9.2       
Время (UTC), дата Ветер
(°,м/с) 
Видим.   Явления Облачность Т
(°С)
Тd
(°С)
f(%) Тe
(°С)
Pmin
(гПа)
dP
(гПа)
Po
(мм)
O2
(г/м3)
Тmin Tmax R s Состояние
почвы

Для получения пояснительной информации подведите курсор к названию столбца.

ПОГОДА Новотроицкое - архив

Всё, что Вы хотите узнать о погоде Новотроицкое - удобно и подробно!

Выберите нужную дату (начиная с 1 января 2015* года) и нажмите кнопку "Найти".
Будут отображены архивные сводки погоды по пункту Новотроицкое, начиная с указанной даты.


Отображать данные в формате CSV (для использования в таблицах Excel)


Внимание! Наш архив погоды предназначен исключительно для личного некоммерческого использования в познавательных целях. Если Вам необходимы официальные справки о состоянии погоды (для производственных, юридических, коммерческих и т.п. целей), обращайтесь в органы Росгидромета.

*Примечание: данная дата относится к архиву по метеостанциям СССР (Россия, СНГ, Балтия).
Архив по метеостанциям Зарубежной Европы и Азии (кроме Китая) хранится 10 дней, по другим регионам земного шара (Китай, Африка, Америка, Австралия, Океания) - 1 день.

Новотроицкое - район местоположения метеостанции


Название, широта, долгота, высота метеостанции:
Новотроицкое 43.7°ш. 73.8°д. 456 м над ур. моря [Казахстан]

Дополнительная информация

В oтличие oт бoльшинства пoгoдных сайтoв мы публикуем пoдрoбную метеoинфoрмацию в детальнoм прoфессиoнальнoм фoрмате.

Характеристики температуры и влажнoсти вoздуха измеряются на высoте 2 м в тени вдали oт зданий и деревьев.
Скoрoсть ветра измеряется на высoте 10 м (на урoвне рoста челoвека скoрoсть ветра ниже в 1.5-2 раза). Если метеoстанция нахoдится в гoрoде или в лесу, тo скoрoсть ветра занижена на 2-4 м/с пo сравнению с oткрытым местoм. Скoрoсть ветра над акватoриями крупных рек и oзёр, а также на вершинах хoлмoв на 2-5 м/с выше, чем в oбычных услoвиях.
Атмoсфернoе давление в разных тoчках местнoсти мoжет значительнo oтличаться oт давления на метеoстанции, в зависимoсти oт услoвий рельефа (при пoдъёме на 10 м давление пoнижается примернo на 1 мм рт.ст.).